TimeEST,TemperatureF,Dew PointF,Humidity,Sea Level PressureIn,VisibilityMPH,Wind Direction,Wind SpeedMPH,Gust SpeedMPH,PrecipitationIn,Events,Conditions,WindDirDegrees,DateUTC
12:53 AM,39.9,18.0,41,30.22,10.0,SSW,8.1,-,N/A,,Clear,210,2013-11-15 05:53:00
1:53 AM,37.9,18.0,45,30.21,10.0,SSW,8.1,-,N/A,,Clear,200,2013-11-15 06:53:00
2:53 AM,35.1,19.0,52,30.22,10.0,SSW,11.5,-,N/A,,Clear,200,2013-11-15 07:53:00
3:53 AM,35.1,19.9,54,30.21,10.0,SSW,8.1,-,N/A,,Clear,200,2013-11-15 08:53:00
4:53 AM,39.9,18.0,41,30.20,10.0,SSW,4.6,-,N/A,,Clear,210,2013-11-15 09:53:00
5:53 AM,36.0,19.9,52,30.22,10.0,South,8.1,-,N/A,,Clear,190,2013-11-15 10:53:00
6:53 AM,33.1,19.9,59,30.24,10.0,South,3.5,-,N/A,,Clear,180,2013-11-15 11:53:00
7:53 AM,35.1,21.9,59,30.27,10.0,Calm,Calm,-,N/A,,Clear,0,2013-11-15 12:53:00
8:53 AM,41.0,23.0,49,30.28,10.0,Calm,Calm,-,N/A,,Clear,0,2013-11-15 13:53:00
9:53 AM,50.0,24.1,36,30.27,10.0,South,5.8,-,N/A,,Clear,190,2013-11-15 14:53:00
10:53 AM,54.0,26.1,34,30.27,10.0,SSE,3.5,-,N/A,,Clear,150,2013-11-15 15:53:00
11:53 AM,57.9,21.9,25,30.23,10.0,SSE,4.6,-,N/A,,Clear,150,2013-11-15 16:53:00
12:53 PM,61.0,18.0,19,30.20,10.0,South,11.5,-,N/A,,Clear,170,2013-11-15 17:53:00
1:53 PM,59.0,19.9,22,30.20,10.0,South,10.4,-,N/A,,Clear,170,2013-11-15 18:53:00
2:53 PM,57.9,21.0,24,30.18,10.0,South,10.4,-,N/A,,Clear,170,2013-11-15 19:53:00
3:53 PM,60.1,23.0,24,30.18,10.0,South,9.2,-,N/A,,Clear,180,2013-11-15 20:53:00
4:53 PM,55.0,24.1,30,30.19,10.0,South,8.1,-,N/A,,Clear,170,2013-11-15 21:53:00
5:53 PM,52.0,25.0,35,30.20,10.0,South,5.8,-,N/A,,Clear,180,2013-11-15 22:53:00
6:53 PM,52.0,26.1,37,30.21,10.0,SSW,4.6,-,N/A,,Clear,200,2013-11-15 23:53:00
7:53 PM,52.0,28.9,41,30.21,10.0,South,9.2,-,N/A,,Overcast,190,2013-11-16 00:53:00
8:53 PM,51.1,36.0,56,30.23,10.0,South,6.9,-,0.00,Rain,Light Rain,190,2013-11-16 01:53:00
9:53 PM,48.0,43.0,83,30.24,5.0,West,4.6,-,0.03,Rain,Rain,260,2013-11-16 02:53:00
10:53 PM,46.9,44.1,90,30.25,5.0,Calm,Calm,-,0.07,Rain,Light Rain,0,2013-11-16 03:53:00
11:53 PM,46.9,46.0,97,30.25,3.0,Calm,Calm,-,0.07,Rain,Light Rain,0,2013-11-16 04:53:00